Погода в Уиле

Погода в Уиле : погода сейчас, прогноз погоды и архив. Всё, что Вы хотите узнать о погоде в Уиле!

Хотите узнать прогноз погоды в Уиле? Тогда Вам сюда: Погода в Уиле

Поиск расширенной информации на нашем сайте:

Другие новости

Новости СМИ2

Главная страница сайта

Новости сайта

03.07.2017

Напоминаем, что на нашем специализированном сайте Метеоцентр.Азия вы можете получить высокодетализированные автоматические прогнозы погоды по пунктам России, СНГ и мира в авиационном формате (включающие направление и скорость ветра, видимость, явления погоды, количество и форму облачности, нижнюю и верхнюю границу облачности).


Погода в Уиле - сегодня

Время (UTC), дата Ветер
(°,м/с) 
Видим.   Явления Облачность Т
(°С)
Тd
(°С)
f(%) Тe
(°С)
Pmin
(гПа)
dP
(гПа)
Po
(мм)
O2
(г/м3)
Тmin Tmax R s Состояние
почвы
06 21.04.18 220 (ЮЗ) 10 км  слаб. ливневой дождь  10/10 600 м кучево-дожд. 
[Cb cap]
+10 +9 93 +10  1001.7  1.2  743  287  +6.7    0.3     
09 21.04.18 250 (З) 10 км  {ливн. осадки}  9/8 1000 м средняя 
[Sc diur, vesp|Ac cuf]
+12.4 +8.8 79 +12  1001.9  0.3  743  285           
15 21.04.18 290 (З) 10 км    9/5 600 м средняя 
[Sc diur, vesp|Ac cuf]
+11 +6.3 73 +11  1004.3  1.7  745  287    +13.6       
21 21.04.18 250 (З) н/о    1/0 средняя 
[Ac cuf]
+7.3 +3.6 77 +7  1006.4  0.5  746  292           
00 22.04.18 180 (Ю) н/о  дымка  ясно 
+2.4 +2.4 100 +3  1006.7  0.2  746  298           
03 22.04.18 тихо ()   4000 м  дымка  3/1 300 м средняя 
[St|Ac trans]
+2 +2 100 +2  1006.7  -0.1  746  298           
06 22.04.18 210 (ЮЗ) 10 км    3/3 600 м 
[Cu med, cong]
+11 -1.8 41 +10  1006.2  746  289  +1.2         
09 22.04.18 200 (Ю) 10 км    3/3 600 м 
[Cu med, cong]
+13.5 -4 29 +12  1004.7  -1.4  745  286           
12 22.04.18 200 (Ю) 10 км    8/8 600 м кучево-дожд. 
[Cb cap]
+16.4 +0.6 34 +16  1002.8  -1.8  744  283           
15 22.04.18 190 (Ю) 10 км    9/8 1000 м верхняя 
[Sc diur, vesp|Cs]
+14.4 +2.2 44 +13  1002.3  -0.6  743  284    +16.9       
18 22.04.18 190 (Ю) н/о  слаб. ливневой дождь  10/10 600 м кучево-дожд. 
[Cb cap]
+11.5 +5.5 67 +10  1003.7  1.3  744  287    +16.9       
21 22.04.18 190 (Ю) н/о  в посл. час ливневой дождь  10/10 600 м кучево-дожд. 
[Cb cap]
+9.9 +9.5 97 +9  1003.3  -0.4  744  288           
00 23.04.18 200 (Ю) н/о  {ливн. осадки}  10/10 600 м кучево-дожд. 
[Cb cap]
+9.8 +9.4 97 +10  1002.3  -1.1  743  287           
03 23.04.18 200 (Ю) 4000 м  слаб. дождь  10/10 300 м 
[Frnb|Ns]
+9.8 +9.8 100 +10  1002.2  -0.1  743  287           
09 23.04.18 220 (ЮЗ) 4000 м  в посл. час гроза{ливн. осадки}  10/10 600 м кучево-дожд. 
[Cb cap]
+9.9 +7 82 +8  1001.8  -0.8  743  288           
12 23.04.18 240 (ЮЗ) 10 км  в посл. час ливневой дождь  10/10 600 м кучево-дожд. 
[Cb cap]
+9.6 +7.3 86 +8  1003.5  1.7  744  288           
15 23.04.18 260 (З) 10 км    3/3 600 м средняя 
[Cu hum|Ac cuf]
+8.5 +1.2 60 +7  1007.1  3.5  747  292    +10.3       
18 23.04.18 200 (Ю) н/о    ясно 
+2.9 +1.3 89 +2  1008.5  1.2  748  298    +10.3     
21 23.04.18 180 (Ю) н/о  слаб. дождь  10/10 600 м 
[Ns]
+3.2 +2.7 97 +4  1008.1  -0.4  747  297           
00 24.04.18 300 (СЗ) н/о  {дождь}  10/10 600 м 
[Sc]
+3.5 +2.3 92 +2  1008.3  0.2  747  297           
03 24.04.18 260 (З) 10 км    5/3 600 м средняя 
[Sc|Ac cuf]
+2 +2 100 1009.6  1.3  748  299           
06 24.04.18 290 (З) 10 км    9/9 1000 м кучево-дожд. 
[Cb cap]
+6.2 -4.2 47 +4  1011.3  1.7  750  296  +2    0.0     
09 24.04.18 210 (ЮЗ) 10 км  в посл. час ливневой снег  10/10 600 м кучево-дожд. 
[Cb cap]
+5.5 -1.3 62 +3  1012.4  1.1  750  297           
12 24.04.18 280 (З) 10 км  {ливн. осадки}  10/10 1000 м кучево-дожд. 
[Cb cap]
+6.8 -5.7 40 +4  1013.8  1.4  752  296           
15 24.04.18 280 (З) 10 км    8/5 1000 м средняя 
[Sc diur, vesp|Ac cuf]
+6.4 -3.5 49 +5  1014.9  1.1  752  297    +7  0.0     
Время (UTC), дата Ветер
(°,м/с) 
Видим.   Явления Облачность Т
(°С)
Тd
(°С)
f(%) Тe
(°С)
Pmin
(гПа)
dP
(гПа)
Po
(мм)
O2
(г/м3)
Тmin Tmax R s Состояние
почвы

Для получения пояснительной информации подведите курсор к названию столбца.

ПОГОДА в Уиле - архив

Всё, что Вы хотите узнать о погоде в Уиле - удобно и подробно!

Выберите нужную дату (начиная с 1 января 2015* года) и нажмите кнопку "Найти".
Будут отображены архивные сводки погоды по пункту Уил, начиная с указанной даты.


Отображать данные в формате CSV (для использования в таблицах Excel)


Внимание! Наш архив погоды предназначен исключительно для личного некоммерческого использования в познавательных целях. Если Вам необходимы официальные справки о состоянии погоды (для производственных, юридических, коммерческих и т.п. целей), обращайтесь в органы Росгидромета.

*Примечание: данная дата относится к архиву по метеостанциям СССР (Россия, СНГ, Балтия).
Архив по метеостанциям Зарубежной Европы и Азии (кроме Китая) хранится 10 дней, по другим регионам земного шара (Китай, Африка, Америка, Австралия, Океания) - 1 день.

Уил - район местоположения метеостанции


Название, широта, долгота, высота метеостанции:
Уил 49.1°ш. 54.7°д. 128 м над ур. моря [Казахстан]

Дополнительная информация

В oтличие oт бoльшинства пoгoдных сайтoв мы публикуем пoдрoбную метеoинфoрмацию в детальнoм прoфессиoнальнoм фoрмате.

Характеристики температуры и влажнoсти вoздуха измеряются на высoте 2 м в тени вдали oт зданий и деревьев.
Скoрoсть ветра измеряется на высoте 10 м (на урoвне рoста челoвека скoрoсть ветра ниже в 1.5-2 раза). Если метеoстанция нахoдится в гoрoде или в лесу, тo скoрoсть ветра занижена на 2-4 м/с пo сравнению с oткрытым местoм. Скoрoсть ветра над акватoриями крупных рек и oзёр, а также на вершинах хoлмoв на 2-5 м/с выше, чем в oбычных услoвиях.
Атмoсфернoе давление в разных тoчках местнoсти мoжет значительнo oтличаться oт давления на метеoстанции, в зависимoсти oт услoвий рельефа (при пoдъёме на 10 м давление пoнижается примернo на 1 мм рт.ст.).